Orbital Elements at Epoch 2459000.5 (2020-May-31.0) TDB
Reference: JPL 28 (heliocentric ecliptic J2000)
Element | Value | Uncertainty (1-sigma) | Units |
e | .008244993099666474 | 4.6215e-08 | |
a | 3.17165560208452 | 1.9791e-08 | au |
q | 3.145505323530815 | 1.436e-07 | au |
i | 9.133210992997036 | 4.1638e-06 | deg |
node | 34.35611659995044 | 3.0866e-05 | deg |
peri | 271.2053748750333 | 0.00026569 | deg |
M | 12.79518561978165 | 0.00026206 | deg |
tp | 2458927.171711101925 (2020-Mar-18.67171110) | 0.001502 | TDB |
period | 2063.134118390175 5.65 | 1.9311e-05 5.287e-08 | d yr |
n | .1744918068055127 | 1.6332e-09 | deg/d |
Q | 3.197805880638226 | 1.9954e-08 | au |
|
| | Orbit Determination Parameters
Additional Information
|